Flag for Germany Weather past 2 weeks in Gotha, Thuringia, Germany

Now
46 °F

Passing clouds.


Feels Like: 44 °F
Forecast: 42 / 58 °F
Wind: 3 mph from Southwest

Location: Erfurt-Bindersleben

Current Time: Sep 24, 2014 at 1:12:48 AM

Latest Report: Sep 24, 2014 at 12:00 AM


Visibility: 31 mi

Pressure: 30.11 "Hg

Humidity: 86%

Dew point: 42 °F

Location of GothaLocation

Historic Weather in Gotha — Graph

°F

Gotha temperature yesterday

Maximum temperature yesterday: 57 °F (at 4:00 PM)
Minimum temperature yesterday: 46 °F (at 8:00 AM)
Average temperature yesterday: 51 °F

Past Weeks' High & Low Weather Summary

 TemperatureHumidityPressure
High73 °F (Sep 19, 2:00 PM)99% (Sep 13, 3:00 AM)30.18 "Hg (Sep 13, 3:00 AM)
Low46 °F (Sep 24, 12:00 AM)53% (Sep 16, 4:00 PM)29.87 "Hg (Sep 19, 2:00 PM)
Average58 °F86%30.03 "Hg
* Reported Midnight between Sep 8 and Sep 9 — Midnight between Sep 23 and Sep 24, Gotha, Weather by CustomWeather, © 2014

Note: Actual official high and low records may vary slightly from our data, if they occured in-between our weather recording intervals... More about our weather records

Advertising

Gotha weather history for previous 24 hours

 ConditionsComfort  
Time TempWeatherWind HumidityBarometerVisibility
12:00 AM
Sep 24
46 °FPassing clouds.3 mph86%30.11 "Hg31 mi
11:00 PM
Sep 23
49 °FOvercast.3 mph83%30.11 "Hg37 mi
10:00 PM51 °FOvercast.2 mph77%30.11 "Hg37 mi
9:00 PM52 °FOvercast.1 mph68%30.11 "Hg37 mi
8:00 PM52 °FOvercast.2 mph73%30.11 "Hg43 mi
7:00 PM52 °FPartly sunny.2 mph71%30.11 "Hg43 mi
6:00 PM54 °FPartly sunny.2 mph64%30.10 "Hg43 mi
5:00 PM55 °FScattered clouds.3 mph58%30.11 "Hg43 mi
4:00 PM57 °FScattered clouds.5 mph53%30.13 "Hg43 mi
3:00 PM55 °FPartly sunny.3 mph60%30.14 "Hg37 mi
2:00 PM54 °FScattered clouds.5 mph60%30.15 "Hg37 mi
1:00 PM55 °FScattered clouds.5 mph63%30.16 "Hg31 mi
12:00 PM53 °FScattered clouds.6 mph65%30.17 "Hg25 mi
11:00 AM52 °FPassing clouds.5 mph67%30.17 "Hg25 mi
10:00 AM50 °FCool.7 mph74%30.16 "HgN/A
9:00 AM49 °FSunny.5 mph85%30.15 "Hg16 mi
8:00 AM46 °FPassing clouds.3 mph93%30.15 "Hg12 mi
7:00 AM47 °FPassing clouds.3 mph90%30.13 "Hg19 mi
6:00 AM48 °FOvercast.3 mph86%30.11 "Hg22 mi
5:00 AM49 °FOvercast.3 mph84%30.10 "Hg22 mi
4:00 AM49 °FOvercast.6 mph81%30.09 "Hg25 mi
3:00 AM49 °FOvercast.7 mph80%30.09 "Hg25 mi
2:00 AM50 °FOvercast.7 mph78%30.09 "Hg25 mi
1:00 AM50 °FOvercast.8 mph77%30.07 "Hg22 mi
Weather by CustomWeather, © 2014

See weather overviewHow to use our weather pages